sat.trackr.live / text

‹ back to catalog

ASTROCAST-0402

NORAD 55109 · 2023-001DE

PAYLOAD ACTIVE UNKNOWN

§ Identity

Operator
Country
SWTZ
Launch date
2023-01-03
Launch site
AFETR
Launch vehicle
Mass (kg)
RCS (m²)

External: N2YO · Heavens-Above · Gunter

§ Orbital elements

Epoch: 2026-09-21T19:08:18.377088Z

Period
94.07 min
Inclination
97.5571°
Eccentricity
0.0003282
Mean motion
15.30742049 rev/d
Perigee alt
471.3 km
Apogee alt
475.8 km
Semi-major
6,851.7 km
B*
2.5808e-4
RAAN
359.5802°
Arg perigee
242.8713°
Mean anomaly
117.2193°
Rev number
15,930

§ Raw data

ASTROCAST-04021 55109U 23001DE  26264.79743492  .00007590  00000+0  25808-3 0  99972 55109  97.5571 359.5802 0003282 242.8713 117.2193 15.30742049159307

JSON: /api/v1/satellites/55109 · /tle

For live sub-satellite position, see the globe view (requires WebGL).

§ Visibility from observer

Set your observer location to see the next 7 days of passes ≥ 10°. The values pass through the URL so the page stays shareable.

No JS? Fill the form by hand. The geolocation button needs JavaScript.